INTELSAT 11 (IS-11)

Last updated on Wed Sep 17 2025 00:02:46 GMT+0000 (Coordinated Universal Time)

1 32253U 07044B 25259.56171859 .00000036 00000+0 00000+0 0 9992 2 32253 2.8475 82.0345 0007899 121.3249 243.6584 0.99047646 65749
UTC large
Height (km)
Speed (km/s)
/
Latitude / Longitude
Inclination (degrees)
Orbital Period (minutes)
Azimuth
Elevation
Range (km)
Doppler Factor

Next 0 passes for location: London (51.5072 / 0.1276)

Sorry there are no passes over London.